Time,TemperatureF,DewpointF,PressureIn,WindDirection,WindDirectionDegrees,WindSpeedMPH,WindSpeedGustMPH,Humidity,HourlyPrecipIn,Conditions,Clouds,dailyrainin,SoftwareType,DateUTC
2013-09-10 00:04:00,73.0,69.0,29.36,NNW,330,0.0,-999.0,87,-99.99,,,0.68,weatherlink.com 1.10,2013-09-10 07:04:00,
2013-09-10 00:19:00,73.2,70.0,29.36,North,357,6.0,-999.0,88,-99.99,,,0.68,weatherlink.com 1.10,2013-09-10 07:19:00,
2013-09-10 00:34:00,73.3,69.0,29.37,North,357,6.0,-999.0,87,-99.99,,,0.68,weatherlink.com 1.10,2013-09-10 07:34:00,
2013-09-10 00:49:00,73.3,70.0,29.39,North,357,7.0,-999.0,88,-99.99,,,0.68,weatherlink.com 1.10,2013-09-10 07:49:00,
2013-09-10 01:04:00,73.2,70.0,29.40,North,359,2.0,-999.0,88,-99.99,,,0.68,weatherlink.com 1.10,2013-09-10 08:04:00,
2013-09-10 01:19:00,72.5,69.0,29.41,North,357,0.0,-999.0,87,-99.99,,,0.71,weatherlink.com 1.10,2013-09-10 08:19:00,
2013-09-10 01:34:00,72.5,69.0,29.42,North,354,0.0,-999.0,89,-99.99,,,0.73,weatherlink.com 1.10,2013-09-10 08:34:00,
2013-09-10 01:49:00,72.7,70.0,29.41,North,356,0.0,-999.0,91,-99.99,,,0.00,weatherlink.com 1.10,2013-09-10 08:49:00,
2013-09-10 02:04:00,72.5,70.0,29.41,North,356,0.0,-999.0,91,-99.99,,,0.00,weatherlink.com 1.10,2013-09-10 09:04:00,
2013-09-10 02:20:00,72.3,69.0,29.40,North,357,0.0,-999.0,90,-99.99,,,0.02,weatherlink.com 1.10,2013-09-10 09:20:00,
2013-09-10 02:35:00,72.3,69.0,29.39,North,352,0.0,-999.0,90,-99.99,,,0.02,weatherlink.com 1.10,2013-09-10 09:35:00,
2013-09-10 02:50:00,72.1,68.0,29.38,NW,316,0.0,-999.0,87,-99.99,,,0.02,weatherlink.com 1.10,2013-09-10 09:50:00,
2013-09-10 03:05:00,72.3,69.0,29.39,SSW,209,0.0,-999.0,89,-99.99,,,0.03,weatherlink.com 1.10,2013-09-10 10:05:00,
2013-09-10 03:20:00,72.3,69.0,29.39,SSW,212,0.0,-999.0,90,-99.99,,,0.03,weatherlink.com 1.10,2013-09-10 10:20:00,
2013-09-10 03:35:00,72.1,69.0,29.39,North,354,0.0,-999.0,89,-99.99,,,0.03,weatherlink.com 1.10,2013-09-10 10:35:00,
2013-09-10 03:50:00,72.1,69.0,29.40,North,357,0.0,-999.0,90,-99.99,,,0.03,weatherlink.com 1.10,2013-09-10 10:50:00,
2013-09-10 04:05:00,72.1,69.0,29.39,North,357,0.0,-999.0,89,-99.99,,,0.03,weatherlink.com 1.10,2013-09-10 11:05:00,
2013-09-10 04:20:00,72.5,69.0,29.38,WNW,298,0.0,-999.0,89,-99.99,,,0.03,weatherlink.com 1.10,2013-09-10 11:20:00,
2013-09-10 04:35:00,72.3,69.0,29.38,WSW,243,0.0,-999.0,90,-99.99,,,0.03,weatherlink.com 1.10,2013-09-10 11:35:00,
2013-09-10 04:50:00,72.5,70.0,29.38,ENE,69,0.0,-999.0,90,-99.99,,,0.03,weatherlink.com 1.10,2013-09-10 11:50:00,
2013-09-10 05:05:00,72.5,70.0,29.38,SW,216,0.0,-999.0,90,-99.99,,,0.03,weatherlink.com 1.10,2013-09-10 12:05:00,
2013-09-10 05:20:00,72.5,70.0,29.39,SW,224,0.0,-999.0,90,-99.99,,,0.03,weatherlink.com 1.10,2013-09-10 12:20:00,
2013-09-10 05:35:00,73.0,70.0,29.38,South,172,0.0,-999.0,89,-99.99,,,0.03,weatherlink.com 1.10,2013-09-10 12:35:00,
2013-09-10 05:50:00,73.0,69.0,29.38,North,357,0.0,-999.0,88,-99.99,,,0.03,weatherlink.com 1.10,2013-09-10 12:50:00,
2013-09-10 06:05:00,73.0,70.0,29.38,North,356,0.0,-999.0,89,-99.99,,,0.03,weatherlink.com 1.10,2013-09-10 13:05:00,
2013-09-10 06:20:00,72.5,69.0,29.39,North,353,0.0,-999.0,89,-99.99,,,0.03,weatherlink.com 1.10,2013-09-10 13:20:00,
2013-09-10 06:35:00,72.5,70.0,29.40,NNW,344,0.0,-999.0,90,-99.99,,,0.03,weatherlink.com 1.10,2013-09-10 13:35:00,
2013-09-10 06:50:00,-999.0,-99.9,29.41,North,-999,-999.0,-999.0,-999,-99.99,,,0.03,weatherlink.com 1.10,2013-09-10 13:50:00,
2013-09-10 07:05:00,73.2,70.0,29.42,South,188,0.0,-999.0,89,-99.99,,,0.03,weatherlink.com 1.10,2013-09-10 14:05:00,
2013-09-10 07:20:00,73.5,70.0,29.43,South,172,0.0,-999.0,87,-99.99,,,0.03,weatherlink.com 1.10,2013-09-10 14:20:00,
2013-09-10 07:35:00,73.9,70.0,29.43,SSE,167,0.0,-999.0,86,-99.99,,,0.03,weatherlink.com 1.10,2013-09-10 14:35:00,
2013-09-10 07:50:00,74.4,70.0,29.44,North,350,0.0,-999.0,85,-99.99,,,0.03,weatherlink.com 1.10,2013-09-10 14:50:00,
2013-09-10 08:05:00,74.7,69.0,29.44,North,359,2.0,-999.0,83,-99.99,,,0.03,weatherlink.com 1.10,2013-09-10 15:05:00,
2013-09-10 08:20:00,75.8,71.0,29.45,North,357,0.0,-999.0,85,-99.99,,,0.03,weatherlink.com 1.10,2013-09-10 15:20:00,
2013-09-10 08:35:00,75.3,71.0,29.45,North,359,3.0,-999.0,85,-99.99,,,0.03,weatherlink.com 1.10,2013-09-10 15:35:00,
2013-09-10 08:50:00,75.4,70.0,29.46,North,359,3.0,-999.0,82,-99.99,,,0.03,weatherlink.com 1.10,2013-09-10 15:50:00,
2013-09-10 09:05:00,76.5,70.0,29.46,North,357,0.0,-999.0,80,-99.99,,,0.03,weatherlink.com 1.10,2013-09-10 16:05:00,
2013-09-10 09:20:00,78.1,69.0,29.46,North,357,0.0,-999.0,74,-99.99,,,0.03,weatherlink.com 1.10,2013-09-10 16:20:00,
2013-09-10 09:35:00,79.6,70.0,29.46,North,357,0.0,-999.0,72,-99.99,,,0.03,weatherlink.com 1.10,2013-09-10 16:35:00,
2013-09-10 09:50:00,80.9,70.0,29.46,North,359,1.0,-999.0,69,-99.99,,,0.03,weatherlink.com 1.10,2013-09-10 16:50:00,
2013-09-10 10:05:00,82.0,70.0,29.47,North,357,4.0,-999.0,67,-99.99,,,0.03,weatherlink.com 1.10,2013-09-10 17:05:00,
2013-09-10 10:20:00,82.8,69.0,29.47,North,357,0.0,-999.0,64,-99.99,,,0.03,weatherlink.com 1.10,2013-09-10 17:20:00,
2013-09-10 10:35:00,83.8,68.0,29.46,North,359,0.0,-999.0,60,-99.99,,,0.03,weatherlink.com 1.10,2013-09-10 17:35:00,
2013-09-10 10:50:00,85.3,67.0,29.46,North,359,1.0,-999.0,55,-99.99,,,0.03,weatherlink.com 1.10,2013-09-10 17:50:00,
2013-09-10 11:05:00,87.2,67.0,29.46,North,356,0.0,-999.0,51,-99.99,,,0.03,weatherlink.com 1.10,2013-09-10 18:05:00,
2013-09-10 11:20:00,88.2,68.0,29.46,North,357,0.0,-999.0,51,-99.99,,,0.03,weatherlink.com 1.10,2013-09-10 18:20:00,
2013-09-10 11:35:00,88.2,65.0,29.45,North,357,0.0,-999.0,47,-99.99,,,0.03,weatherlink.com 1.10,2013-09-10 18:35:00,
2013-09-10 11:50:00,89.5,68.0,29.45,North,357,0.0,-999.0,49,-99.99,,,0.03,weatherlink.com 1.10,2013-09-10 18:50:00,
2013-09-10 12:05:00,90.1,66.0,29.45,North,357,1.0,-999.0,45,-99.99,,,0.03,weatherlink.com 1.10,2013-09-10 19:05:00,
2013-09-10 12:20:00,90.3,66.0,29.45,North,357,5.0,-999.0,45,-99.99,,,0.03,weatherlink.com 1.10,2013-09-10 19:20:00,
2013-09-10 12:36:00,90.1,67.0,29.44,North,357,6.0,-999.0,47,-99.99,,,0.03,weatherlink.com 1.10,2013-09-10 19:36:00,
2013-09-10 12:51:00,90.1,66.0,29.44,North,357,1.0,-999.0,45,-99.99,,,0.03,weatherlink.com 1.10,2013-09-10 19:51:00,
2013-09-10 13:06:00,90.7,66.0,29.44,North,356,0.0,-999.0,44,-99.99,,,0.03,weatherlink.com 1.10,2013-09-10 20:06:00,
2013-09-10 13:36:00,91.6,66.0,29.43,North,357,2.0,-999.0,43,-99.99,,,0.03,weatherlink.com 1.10,2013-09-10 20:36:00,
2013-09-10 13:51:00,91.6,65.0,29.42,North,357,3.0,-999.0,42,-99.99,,,0.03,weatherlink.com 1.10,2013-09-10 20:51:00,
2013-09-10 14:06:00,92.3,67.0,29.42,North,357,5.0,-999.0,43,-99.99,,,0.03,weatherlink.com 1.10,2013-09-10 21:06:00,
2013-09-10 14:21:00,92.9,65.0,29.42,North,357,2.0,-999.0,40,-99.99,,,0.03,weatherlink.com 1.10,2013-09-10 21:21:00,
2013-09-10 14:36:00,93.2,65.0,29.41,North,357,5.0,-999.0,39,-99.99,,,0.03,weatherlink.com 1.10,2013-09-10 21:36:00,
2013-09-10 14:51:00,94.0,64.0,29.41,North,357,5.0,-999.0,37,-99.99,,,0.03,weatherlink.com 1.10,2013-09-10 21:51:00,
2013-09-10 15:06:00,94.7,63.0,29.41,NNW,336,0.0,-999.0,35,-99.99,,,0.03,weatherlink.com 1.10,2013-09-10 22:06:00,
2013-09-10 15:21:00,94.3,63.0,29.41,North,354,0.0,-999.0,36,-99.99,,,0.03,weatherlink.com 1.10,2013-09-10 22:21:00,
2013-09-10 15:36:00,95.1,64.0,29.40,North,356,1.0,-999.0,36,-99.99,,,0.03,weatherlink.com 1.10,2013-09-10 22:36:00,
2013-09-10 15:51:00,94.9,66.0,29.40,North,356,0.0,-999.0,38,-99.99,,,0.03,weatherlink.com 1.10,2013-09-10 22:51:00,
2013-09-10 16:06:00,94.5,64.0,29.39,North,357,0.0,-999.0,37,-99.99,,,0.03,weatherlink.com 1.10,2013-09-10 23:06:00,
2013-09-10 16:21:00,95.4,64.0,29.39,North,357,1.0,-999.0,36,-99.99,,,0.03,weatherlink.com 1.10,2013-09-10 23:21:00,
2013-09-10 16:36:00,96.1,65.0,29.39,North,357,0.0,-999.0,36,-99.99,,,0.03,weatherlink.com 1.10,2013-09-10 23:36:00,
2013-09-10 16:51:00,96.1,64.0,29.39,North,357,0.0,-999.0,35,-99.99,,,0.03,weatherlink.com 1.10,2013-09-10 23:51:00,
2013-09-10 17:06:00,97.1,64.0,29.38,NW,316,0.0,-999.0,33,-99.99,,,0.03,weatherlink.com 1.10,2013-09-11 00:06:00,
2013-09-10 17:21:00,96.8,63.0,29.38,North,357,0.0,-999.0,33,-99.99,,,0.03,weatherlink.com 1.10,2013-09-11 00:21:00,
2013-09-10 17:36:00,97.1,64.0,29.38,NNW,344,0.0,-999.0,33,-99.99,,,0.03,weatherlink.com 1.10,2013-09-11 00:36:00,
2013-09-10 17:51:00,96.1,64.0,29.38,North,357,0.0,-999.0,34,-99.99,,,0.03,weatherlink.com 1.10,2013-09-11 00:51:00,
2013-09-10 18:06:00,96.3,64.0,29.38,North,352,0.0,-999.0,34,-99.99,,,0.03,weatherlink.com 1.10,2013-09-11 01:06:00,
2013-09-10 18:21:00,96.3,64.0,29.38,NNW,347,0.0,-999.0,34,-99.99,,,0.03,weatherlink.com 1.10,2013-09-11 01:21:00,
2013-09-10 18:36:00,95.1,64.0,29.38,North,352,0.0,-999.0,36,-99.99,,,0.03,weatherlink.com 1.10,2013-09-11 01:36:00,
2013-09-10 18:51:00,91.6,65.0,29.38,North,356,1.0,-999.0,41,-99.99,,,0.03,weatherlink.com 1.10,2013-09-11 01:51:00,
2013-09-10 19:06:00,89.0,66.0,29.39,North,356,2.0,-999.0,46,-99.99,,,0.03,weatherlink.com 1.10,2013-09-11 02:06:00,
2013-09-10 19:21:00,88.0,66.0,29.39,North,356,1.0,-999.0,48,-99.99,,,0.03,weatherlink.com 1.10,2013-09-11 02:21:00,
2013-09-10 19:36:00,87.2,67.0,29.40,North,357,0.0,-999.0,51,-99.99,,,0.03,weatherlink.com 1.10,2013-09-11 02:36:00,
2013-09-10 19:51:00,86.7,67.0,29.41,North,357,0.0,-999.0,52,-99.99,,,0.03,weatherlink.com 1.10,2013-09-11 02:51:00,
2013-09-10 20:06:00,86.5,66.0,29.41,North,357,0.0,-999.0,51,-99.99,,,0.03,weatherlink.com 1.10,2013-09-11 03:06:00,
2013-09-10 20:21:00,86.3,66.0,29.41,North,357,0.0,-999.0,50,-99.99,,,0.03,weatherlink.com 1.10,2013-09-11 03:21:00,
2013-09-10 20:36:00,86.3,65.0,29.42,North,357,0.0,-999.0,49,-99.99,,,0.03,weatherlink.com 1.10,2013-09-11 03:36:00,
2013-09-10 20:51:00,86.1,65.0,29.43,North,357,0.0,-999.0,49,-99.99,,,0.03,weatherlink.com 1.10,2013-09-11 03:51:00,
2013-09-10 21:06:00,85.9,65.0,29.43,North,357,0.0,-999.0,50,-99.99,,,0.03,weatherlink.com 1.10,2013-09-11 04:06:00,
2013-09-10 21:21:00,85.5,65.0,29.44,North,357,0.0,-999.0,51,-99.99,,,0.03,weatherlink.com 1.10,2013-09-11 04:21:00,
2013-09-10 21:36:00,85.1,67.0,29.44,North,357,0.0,-999.0,54,-99.99,,,0.03,weatherlink.com 1.10,2013-09-11 04:36:00,
2013-09-10 21:51:00,84.5,67.0,29.45,North,359,0.0,-999.0,55,-99.99,,,0.03,weatherlink.com 1.10,2013-09-11 04:51:00,
2013-09-10 22:06:00,84.1,67.0,29.45,North,357,0.0,-999.0,57,-99.99,,,0.03,weatherlink.com 1.10,2013-09-11 05:06:00,
2013-09-10 22:21:00,83.6,67.0,29.46,North,359,0.0,-999.0,57,-99.99,,,0.03,weatherlink.com 1.10,2013-09-11 05:21:00,
2013-09-10 22:36:00,83.6,66.0,29.46,North,349,0.0,-999.0,55,-99.99,,,0.03,weatherlink.com 1.10,2013-09-11 05:36:00,
2013-09-10 22:51:00,83.2,65.0,29.46,North,359,0.0,-999.0,55,-99.99,,,0.03,weatherlink.com 1.10,2013-09-11 05:51:00,
2013-09-10 23:06:00,83.4,69.0,29.46,North,359,0.0,-999.0,62,-99.99,,,0.03,weatherlink.com 1.10,2013-09-11 06:06:00,
2013-09-10 23:21:00,83.0,71.0,29.46,North,357,0.0,-999.0,68,-99.99,,,0.03,weatherlink.com 1.10,2013-09-11 06:21:00,
2013-09-10 23:36:00,82.2,72.0,29.46,North,356,0.0,-999.0,71,-99.99,,,0.03,weatherlink.com 1.10,2013-09-11 06:36:00,
2013-09-10 23:51:00,81.6,72.0,29.46,North,356,0.0,-999.0,73,-99.99,,,0.03,weatherlink.com 1.10,2013-09-11 06:51:00,